Weather History for Cincinnati, OH

Change the Weather History Date:

Monday, June 24, 2013

  Actual Average Record
Temperature  
Mean Temperature 73 °F -  
Max Temperature 86 °F 84 °F 95 °F (1952)
Min Temperature 62 °F 62 °F 51 °F (1961)
Cooling Degree Days 8    
Growing Degree Days 23 (Base 50)    
Moisture  
Dew Point 67 °F    
Average Humidity 88    
Maximum Humidity 100    
Minimum Humidity 60    
Precipitation  
Precipitation 0.00 in - - ()
Sea Level Pressure  
Sea Level Pressure 30.10 in    
Wind  
Wind Speed 2 mph (SSW)    
Max Wind Speed 12 mph    
Max Gust Speed -    
Visibility 5 miles    
Events Fog    
Averages and records for this station are not official NWS values.
T = Trace of Precipitation, MM = Missing Value Source: NWS Daily Summary

Daily Weather History Graph

Daily Weather History Graph

Search for Another Location

Airport:

Trip Planner

Search our weather history database for the weather conditions in past years. The results will help you decide how hot, cold, wet, or windy it might be!

Date:

Astronomy

Jun. 24, 2013 Rise Set
Actual Time 6:12 AM EDT 9:07 PM EDT
Civil Twilight 5:40 AM EDT 9:39 PM EDT
Nautical Twilight 4:59 AM EDT 10:20 PM EDT
Astronomical Twilight 4:12 AM EDT 11:07 PM EDT
Moon 10:10 PM EDT (6/24) 7:38 AM EDT (6/24)
Length of Visible Light 15h 59m
Length of Day
14h 54m
Full, 98% of the Moon is Illuminated
Jun 24
Full
Jun 30
Last Quarter
Jul 8
New
Jul 15
First Quarter
Jul 22
Full

Hourly Weather History & Observations

Time (EDT) Temp. Heat Index Dew Point Humidity Pressure Visibility Wind Dir Wind Speed Gust Speed Precip Events Conditions
12:53 AM 68.0 °F - 66.9 °F 96% 30.12 in 6.0 mi Calm Calm - N/A   Clear
1:53 AM 66.0 °F - 66.0 °F 100% 30.11 in 3.0 mi Calm Calm - N/A   Clear
2:53 AM 66.0 °F - 66.0 °F 100% 30.11 in 4.0 mi Calm Calm - N/A   Clear
3:12 AM 64.4 °F - 64.4 °F 100% 30.12 in 1.8 mi Calm Calm - N/A   Clear
3:53 AM 64.9 °F - 64.9 °F 100% 30.10 in 3.0 mi Calm Calm - N/A   Clear
3:57 AM 64.4 °F - 64.4 °F 100% 30.11 in 1.8 mi Calm Calm - N/A   Clear
4:17 AM 66.2 °F - 64.4 °F 94% 30.11 in 1.0 mi Calm Calm - N/A   Mist
4:22 AM 64.4 °F - 64.4 °F 100% 30.11 in 2.0 mi Calm Calm - N/A   Clear
4:51 AM 64.4 °F - 64.4 °F 100% 30.11 in 1.2 mi Calm Calm - N/A   Clear
4:53 AM 64.9 °F - 64.9 °F 100% 30.10 in 1.2 mi Calm Calm - N/A   Clear
5:04 AM 64.4 °F - 64.4 °F 100% 30.11 in 0.8 mi Calm Calm - N/A   Clear
5:11 AM 64.4 °F - 64.4 °F 100% 30.11 in 1.2 mi Calm Calm - N/A   Clear
5:20 AM 64.4 °F - 64.4 °F 100% 30.11 in 3.0 mi Calm Calm - N/A   Clear
5:23 AM 64.4 °F - 64.4 °F 100% 30.11 in 1.5 mi Calm Calm - N/A   Clear
5:36 AM 64.4 °F - 64.4 °F 100% 30.11 in 3.0 mi Calm Calm - N/A   Clear
5:48 AM 64.4 °F - 64.4 °F 100% 30.11 in 1.8 mi Calm Calm - N/A   Clear
5:49 AM 64.9 °F - 64.9 °F 100% 30.10 in 1.5 mi Calm Calm - N/A   Clear
5:57 AM 62.6 °F - 62.6 °F 100% 30.12 in 0.5 mi Calm Calm - N/A Fog Fog
6:03 AM 64.4 °F - 64.4 °F 100% 30.12 in 1.0 mi Calm Calm - N/A   Clear
6:09 AM 64.4 °F - 64.4 °F 100% 30.12 in 0.2 mi Calm Calm - N/A Fog Fog
6:40 AM 64.4 °F - 64.4 °F 100% 30.13 in 1.2 mi Calm Calm - N/A   Scattered Clouds
6:50 AM 64.4 °F - 64.4 °F 100% 30.13 in 5.0 mi Calm Calm - N/A   Partly Cloudy
6:53 AM 64.9 °F - 64.9 °F 100% 30.12 in 5.0 mi Calm Calm - N/A   Partly Cloudy
7:53 AM 69.1 °F - 68.0 °F 96% 30.13 in 7.0 mi Calm Calm - N/A   Clear
8:53 AM 73.0 °F - 68.0 °F 84% 30.15 in 9.0 mi South 4.6 mph - N/A   Partly Cloudy
9:53 AM 79.0 °F - 71.1 °F 77% 30.14 in 10.0 mi South 5.8 mph - N/A   Clear
10:53 AM 81.0 °F 84.1 °F 69.1 °F 67% 30.14 in 10.0 mi West 8.1 mph - N/A   Mostly Cloudy
11:53 AM 82.9 °F 85.8 °F 68.0 °F 60% 30.14 in 10.0 mi WSW 9.2 mph - N/A   Scattered Clouds
12:53 PM 84.0 °F 88.4 °F 70.0 °F 63% 30.12 in 10.0 mi WSW 9.2 mph - N/A   Scattered Clouds
1:53 PM 84.0 °F 87.8 °F 69.1 °F 61% 30.11 in 10.0 mi WSW 5.8 mph - N/A   Scattered Clouds
2:53 PM 82.0 °F 85.5 °F 69.1 °F 65% 30.08 in 10.0 mi WSW 4.6 mph - N/A   Scattered Clouds
3:53 PM 84.0 °F 87.8 °F 69.1 °F 61% 30.07 in 10.0 mi SSW 6.9 mph - N/A   Partly Cloudy
4:53 PM 84.0 °F 87.8 °F 69.1 °F 61% 30.04 in 10.0 mi SSW 11.5 mph - N/A   Clear
5:53 PM 82.9 °F 87.0 °F 70.0 °F 65% 30.04 in 10.0 mi SW 9.2 mph - N/A   Clear
6:53 PM 80.1 °F 83.2 °F 70.0 °F 71% 30.04 in 10.0 mi South 11.5 mph - N/A   Clear
7:53 PM 80.1 °F 83.6 °F 71.1 °F 74% 30.06 in 10.0 mi SW 5.8 mph - N/A   Clear
8:53 PM 77.0 °F - 71.1 °F 82% 30.05 in 8.0 mi South 4.6 mph - N/A   Clear
9:53 PM 73.0 °F - 69.1 °F 87% 30.05 in 8.0 mi South 6.9 mph - N/A   Clear
10:53 PM 73.0 °F - 68.0 °F 84% 30.08 in 10.0 mi South 5.8 mph - N/A   Clear
11:53 PM 72.0 °F - 68.0 °F 87% 30.08 in 10.0 mi SSE 3.5 mph - N/A   Clear